Lid_Strength_Index
4 3 2 2 2 1 1 0 1 0 0 1 1 1 1 1 0 -0 -0 -1 -1 -1 -1 -0 -0 -0 0 0 0 0 1 1 0 2 2 1 1 1 0 0 0 -0 -0
5 4 3 2 2 2 1 1 1 1 0 0 0 1 1 1 0 -0 -0 -0 -0 -1 -1 -0 0 -0 0 0 0 1 1 1 0 2 3 5 3 2 1 0 0 0 -0
5 4 3 3 2 2 1 0 1 1 0 -0 0 0 0 1 1 1 1 -0 -0 -1 -0 -1 -1 -1 -0 1 0 0 1 2 1 1 3 5 6 4 1 1 1 1 0
4 4 4 3 3 2 1 1 1 1 0 -0 1 1 2 2 1 1 0 0 -1 -1 -1 -1 -0 0 -0 0 0 -0 0 1 3 1 1 1 2 5 5 2 1 1 1
4 4 4 3 2 1 1 1 1 0 0 -0 0 1 1 1 1 1 -0 -0 -0 -1 -1 -1 -0 -0 -0 -0 0 0 0 1 2 2 2 2 2 2 4 5 4 2 1
4 4 3 2 2 1 1 1 1 1 0 -0 1 0 1 1 1 1 1 1 0 0 -0 -1 -1 -1 -0 -0 0 0 0 0 1 1 1 2 3 3 3 4 4 4 2
4 4 4 3 3 2 2 2 1 2 1 1 1 0 1 1 1 1 1 1 1 1 0 -0 -0 -0 -0 -0 -0 0 0 0 1 1 1 1 1 1 2 3 4 4 3
4 4 3 3 2 2 2 2 2 2 1 1 1 0 0 0 1 1 1 1 1 1 -0 -0 -0 -0 -0 -0 -0 0 0 0 0 1 1 1 1 1 1 3 3 5 4
4 4 3 2 2 2 2 2 2 1 1 1 1 0 0 0 1 -0 -1 0 0 0 -0 -0 0 -0 -0 -0 -0 0 1 0 0 1 1 1 1 0 1 1 2 3 6
4 3 3 3 2 2 1 1 1 1 1 1 1 0 1 0 0 0 0 0 0 -0 -0 -0 -0 0 0 -0 0 0 0 1 1 0 1 1 1 1 0 1 1 1 3
4 3 3 2 2 2 2 2 1 1 1 1 0 0 1 0 -0 0 0 0 -0 0 0 -0 0 0 -0 -0 0 0 0 1 1 1 1 1 1 1 1 1 1 1 2
3 3 3 3 2 3 2 2 1 1 1 1 1 1 0 0 0 0 0 -0 -1 -1 -0 -0 -0 0 0 -0 0 1 1 1 1 1 1 1 1 1 1 1 1 1 1
3 3 3 3 3 3 2 2 2 2 1 1 1 1 1 1 1 0 0 -0 -0 -0 -0 -0 0 0 0 0 0 0 1 1 1 1 1 1 1 1 1 1 1 1 2
3 3 3 3 3 2 2 2 2 1 1 1 1 1 1 1 0 0 0 -0 -0 0 -0 -0 -0 -0 -0 0 0 0 0 1 0 0 0 1 1 1 1 1 1 2 3
4 4 4 3 3 2 2 2 1 1 1 1 2 1 1 0 0 0 0 -0 -0 -0 -0 -0 -1 -1 0 1 1 0 0 1 1 0 0 0 -0 1 2 1 1 1 3
4 4 3 3 3 3 2 2 2 1 1 1 2 1 1 1 1 0 1 0 0 -0 -0 -0 0 0 1 2 1 0 0 0 1 1 0 0 -0 1 2 2 3 1 1
4 3 3 3 3 2 2 2 2 1 1 1 1 1 1 1 1 1 1 1 1 0 -0 0 1 1 0 2 1 1 0 0 0 1 1 1 1 -0 0 1 1 2 2
3 3 3 2 2 2 2 1 1 1 1 2 2 1 1 1 1 1 1 1 1 1 1 0 1 1 2 3 3 2 -0 0 0 0 0 0 1 3 1 2 3 4 4
3 3 2 2 2 2 2 1 2 1 1 2 1 2 1 1 1 2 1 1 1 1 1 0 1 1 0 4 3 4 -0 0 1 0 1 1 1 5 5 2 3 4 6
3 3 2 2 2 2 1 2 2 2 2 1 1 1 1 1 2 1 1 1 1 1 1 1 0 1 0 6 5 4 1 1 1 0 2 6 5 7 7 0 1 3 4
3 2 2 3 2 1 1 2 2 2 1 1 1 1 1 1 1 1 1 1 1 1 1 1 1 0 1 2 5 6 0 1 1 1 3 5 7 7 7 6 2 2 2
3 3 3 3 2 1 1 2 2 1 1 1 1 1 1 1 1 1 1 1 1 2 2 2 1 1 0 4 7 6 5 1 1 2 2 5 8 8 7 4 6 5 5
3 2 3 3 2 2 2 2 2 1 1 1 1 1 1 1 1 1 1 2 2 2 2 2 2 2 1 1 7 7 6 4 1 1 5 8 9 8 7 6 6 6 3
3 2 2 3 3 2 2 1 1 1 1 2 2 1 1 2 1 1 1 2 3 3 3 3 3 2 1 2 3 3 4 6 3 5 5 5 4 4 4 4 4 2 3
3 2 2 2 3 2 2 1 1 1 2 2 2 2 2 2 4 7 8 4 4 4 3 3 2 2 2 1 4 3 1 2 3 3 4 4 4 3 3 2 2 2 3
2 2 2 2 2 2 1 1 1 1 1 2 2 2 2 3 5 7 7 11 12 12 12 11 6 6 9 12 11 11 9 9 8 3 4 5 4 3 2 2 2 3 3